Regional Weather Roundup
Issued by NWS Upton, NY

Current Version | Previous Version | Text Only | Print | Product List | Glossary Off
Versions: 1 2 3 4 5 6 7 8 9 10 11 12 13 14 15 16 17 18 19 20 21 22 23 24 25 26 27 28 29 30 31 32 33 34 35 36 37 38 39 40 41 42 43 44 45 46 47 48 49 50
000 ASUS41 KOKX 071104 RWROKX REGIONAL WEATHER ROUNDUP NATIONAL WEATHER SERVICE NEW YORK NY 600 AM EST SUN FEB 07 2016 NOTE: "FAIR" INDICATES FEW OR NO CLOUDS BELOW 12,000 FEET WITH NO SIGNIFICANT WEATHER AND/OR OBSTRUCTIONS TO VISIBILITY. NYZ071-072-176-178-NJZ106-104-071200- NEW YORK CITY METRO AREA CITY SKY/WX TMP DP RH WIND PRES REMARKS CENTRAL PARK CLEAR 34 20 56 CALM 30.20F LAGUARDIA APRT CLEAR 35 24 64 S3 30.19S KENNEDY INTL CLEAR 30 24 78 SW6 30.21S WCI 24 NEWARK/LIBERTY CLEAR 29 23 78 S3 30.20S BRNX BOT. GARD N/A 32 23 69 NW2 30.19F TETERBORO CLEAR 26 21 81 CALM 30.18S $$ NYZ177-179-078>081-071200- LONG ISLAND NEW YORK CITY SKY/WX TMP DP RH WIND PRES REMARKS FARMINGDALE CLEAR 23 20 88 CALM 30.19S ISLIP CLEAR 20 18 92 CALM 30.18R SHIRLEY CLEAR 21 19 92 CALM 30.20S RIVERHEAD N/A 28 19 69 CALM 30.21R WESTHAMPTON CLEAR 13 11 92 CALM 30.21S EAST HAMPTON FAIR 19 17 94 CALM 30.19S MONTAUK POINT N/A 34 26 72 W3 30.20S $$ NYZ052-065-067-071200- HUDSON VALLEY CITY SKY/WX TMP DP RH WIND PRES REMARKS WHITE PLAINS CLEAR 26 20 77 NW3 30.15F NEWBURGH CLEAR 23 19 86 W8 30.16F WCI 14 MONTGOMERY CLEAR 21 18 88 CALM 30.15F POUGHKEEPSIE CLEAR 22 17 81 SE3 30.17F ALBANY CLEAR 28 18 66 CALM 30.16S $$ NJZ001-105-106-008-010-013-015-019>022-104-071200- NEW JERSEY CITY SKY/WX TMP DP RH WIND PRES REMARKS NEWARK/LIBERTY CLEAR 29 23 78 S3 30.20S TETERBORO CLEAR 26 21 81 CALM 30.18S CALDWELL CLEAR 25 21 85 CALM 30.19F MORRISTOWN CLEAR 19 18 93 CALM 30.18F SOMERVILLE NOT AVBL SUSSEX CLEAR 21 17 84 CALM 30.15F ANDOVER N/A 20 17 88 CALM 30.16F TRENTON CLEAR 24 21 88 NW3 30.20R MILLVILLE CLEAR 21 18 88 CALM 30.21F ATLANTIC CITY CLEAR 21 19 92 CALM 30.22S WRIGHTSTOWN CLEAR 22 22 100 CALM 30.18R TOMS RIVER CLEAR 19 16 86 CALM 30.22R BELMAR CLEAR 28 18 64 W6 30.20R WCI 22 $$ PAZ047>061-062-071-071200- EASTERN PENNSYLVANIA CITY SKY/WX TMP DP RH WIND PRES REMARKS PHILADELPHIA PTCLDY 30 24 78 W3 30.22S ALLENTOWN CLEAR 21 17 84 CALM 30.18R SCRANTON CLEAR 23 17 78 SE3 30.14S $$ CTZ002-004>006-009-010-012-RIZ004-006-007-MAZ004-011-015-071200- SOUTHERN NEW ENGLAND IN CT CITY SKY/WX TMP DP RH WIND PRES REMARKS BRADLEY INTL CLEAR 19 16 88 NE5 30.16F WCI 12 HARTFORD CLEAR 25 22 88 CALM 30.18F DANBURY CLEAR 19 14 81 CALM 30.17F WTRBRY/OXFORD CLEAR 27 12 54 N3 30.15F BRIDGEPORT CLEAR 26 21 81 CALM 30.19S MERIDEN CLEAR 17 13 84 CALM 30.18S FOG NEW HAVEN CLEAR 22 19 89 CALM 30.18F CHESTER FAIR 32 23 69 W5 30.16F WCI 27 GROTON CLEAR 26 25 96 NE5 30.18F WCI 20 WILLIMANTIC CLEAR 17 13 84 NE3 30.18F IN RI CITY SKY/WX TMP DP RH WIND PRES REMARKS PROVIDENCE PTCLDY 28 23 81 W7 30.18F WCI 21 BLOCK ISLAND CLEAR 36 28 75 W8 30.17S WCI 29 WESTERLY CLEAR 22 21 96 CALM 30.19F IN MA CITY SKY/WX TMP DP RH WIND PRES REMARKS BOSTON CLEAR 32 22 66 W10 30.15F WCI 24 WORCESTER CLEAR 25 17 72 W10 30.10F WCI 15 WESTFIELD CLEAR 18 15 88 CALM 30.16S PROVINCETOWN CLEAR 34 28 79 W10 30.17F WCI 26 NANTUCKET CLEAR 35 28 75 W7 30.18F WCI 29 $$ ANZ330-335-338-340-345-350-353-355-071200- COASTAL MARINE OBSERVATIONS STATION/POSITION TIME SKY/WX TEMP WIND PRES VSBY WAVE AIR SEA DIR/SP/G HT/PER (UTC) (F) (DEG/KT/KT) (MB) (MI) (FT/S) NY HARB ENTRANCE 1050 38 42 260/ 4/ 6 1022.3 2/10 4S FIRE IS NOT AVBL 20S FIRE ISLAND 0950 40 43 270/ 8/ 10 1022.6 2/ 9 GREAT SOUTH BAY NOT AVBL 23SW MTP 1050 40 45 270/ 10/ 12 1022.0 3/ 5 HUDSON CANYON 0950 43 50 1022.7 2/10 KINGS POINT 1006 34 39 200/ 3/ 4 1021.8 EXECUTION ROCKS NOT AVBL CENTRAL LI SOUND 1000 38 270/ 10/ 12 N/A 1/ 3 EASTERN LI SOUND 1000 38 42 280/ 10/ 12 N/A ROBBINS REEF 1006 32 250/ 3/ 3 1021.7 $$ >>>>>>>>>>>>>>>>>>>>>>>>>>>> KEY <<<<<<<<<<<<<<<<<<<<<<<<<<< > < > SKY/WX - SKY CONDITION/PRESENT WEATHER < > TMP - TEMPERATURE IN FAHRENHEIT < > DP - DEWPOINT IN FAHRENHEIT < > RH - RELATIVE HUMIDITY IN PERCENT < > WIND - DIRECTION AND SPEED IN MPH < > PRES - MEAN SEA LEVEL PRESSURE IN INCHES OF HG < > WCI - WIND CHILL INDEX < > VSB - VISIBILITY IN MILES < > HX - HEAT INDEX < > TC - TEMPERATURE IN CELSIUS < > VRB - VARIABLE WIND DIRECTION < > < >>>>>>>>>>>>>>>>>>>>>>>>>>>> KEY <<<<<<<<<<<<<<<<<<<<<<<<<<<

USA.gov is the U.S. government's official web portal to all federal, state and local government web resources and services.